This is the latest recevied weather packets stored in our database for station/object W1LBM. If no packets are shown the sender has not sent any weather packets the latest 10 day(s).
| Time | Temp. | Humidity | Pressure | Rain* | Wind** | Luminosity | Snow |
|---|---|---|---|---|---|---|---|
| 1778165909 | 14.44° C | 63% | 1011.2 hPa | 0 mm | - | 672 W/m² | - |
| 1778165605 | 13.89° C | 64% | 1011.3 hPa | 0 mm | - | 657 W/m² | - |
| 1778165303 | 13.89° C | 68% | 1011.2 hPa | 0 mm | - | 669 W/m² | - |
| 1778165000 | 13.89° C | 67% | 1011.4 hPa | 0 mm | - | 195 W/m² | - |
| 1778164696 | 14.44° C | 68% | 1011.3 hPa | 0 mm | - | 796 W/m² | - |
| 1778164394 | 13.89° C | 71% | 1011.2 hPa | 0 mm | - | 611 W/m² | - |
| 1778164089 | 13.89° C | 72% | 1011.5 hPa | 0 mm | - | 699 W/m² | - |
| 1778163786 | 13.33° C | 72% | 1011.3 hPa | 0 mm | - | 156 W/m² | - |
| 1778163483 | 13.89° C | 70% | 1011.4 hPa | 0 mm | - | 386 W/m² | - |
| 1778163180 | 13.33° C | 76% | 1011.5 hPa | 0 mm | - | 172 W/m² | - |
| 1778162875 | 12.78° C | 76% | 1011.7 hPa | 0 mm | - | 118 W/m² | - |
| 1778162573 | 12.78° C | 78% | 1011.5 hPa | 0 mm | - | 161 W/m² | - |
| 1778162270 | 12.78° C | 77% | 1011.5 hPa | 0 mm | - | 161 W/m² | - |
| 1778161968 | 13.33° C | 75% | 1011.5 hPa | 0 mm | - | 194 W/m² | - |
| 1778161663 | 12.78° C | 76% | 1011.7 hPa | 0 mm | - | 189 W/m² | - |
| 1778161360 | 13.33° C | 77% | 1011.6 hPa | 0 mm | - | 123 W/m² | - |
| 1778161056 | 12.78° C | 79% | 1011.7 hPa | 0 mm | - | 175 W/m² | - |
| 1778160753 | 12.22° C | 78% | 1011.6 hPa | 0 mm | - | 131 W/m² | - |
| 1778160451 | 12.22° C | 80% | 1011.8 hPa | 0 mm | - | 179 W/m² | - |
| 1778160147 | 11.67° C | 82% | 1011.8 hPa | 0 mm | - | 84 W/m² | - |
| 1778159844 | 11.67° C | 83% | 1011.8 hPa | 0 mm | - | 126 W/m² | - |
| 1778159541 | 11.67° C | 84% | 1012 hPa | 0 mm | - | 159 W/m² | - |
| 1778159238 | 11.67° C | 84% | 1011.9 hPa | 0 mm | - | 124 W/m² | - |
| 1778158936 | 11.11° C | 87% | 1011.6 hPa | 0 mm | - | 169 W/m² | - |
| 1778158634 | 11.11° C | 87% | 1011.7 hPa | 0 mm | - | 56 W/m² | - |
* Rain latest hour (hover to see other rain measurements)
** Current wind speed in m/s (hover to see current wind gust speed)